[[{"header":{"parameterUnit":"m.s-1","parameterCategory":2,"la1":30.2992,"la2":30.254,"lo1":-89.0895,"lo2":-89.0443,"dy":0.0025,"dx":0.0025,"nx":19,"ny":19,"refTime":"2026-05-11T21:00:00:Z","depth":"0","parameterNumber":2,"parameterNumberName":"U-component_of_CURRENTS"},"data":[0,0,0,-0.212,-0.2122,-0.2187,-0.2187,-0.2295,-0.2296,0,0,0,0,0,0,0,0,0,0,0,-0.2086,-0.2087,-0.212,-0.2122,-0.2187,-0.2187,-0.2294,-0.2296,0,0,0,0,0,0,0,0,0,0,0,-0.2086,-0.2086,-0.2087,-0.2122,-0.2187,-0.2187,-0.2294,-0.2237,0,0,0,0,0,0,0,0,0,0,-0.217,-0.2141,-0.2086,-0.2087,-0.2123,-0.2187,-0.2187,-0.2234,-0.224,-0.2275,0,-0.2284,0,-0.2303,-0.2304,-0.2305,0,0,0,-0.2113,-0.2135,-0.2154,-0.2087,-0.2123,-0.2187,-0.2155,-0.2237,-0.2245,-0.2284,-0.2285,-0.229,-0.2305,-0.2305,-0.2306,-0.2429,-0.2429,0,0,-0.2109,-0.2099,-0.2149,-0.2159,-0.214,-0.2153,-0.2157,-0.2241,-0.225,-0.2286,-0.2292,-0.2307,-0.2306,-0.2307,-0.2429,-0.2429,0,0,0,-0.2105,-0.2097,-0.2113,-0.2154,-0.217,-0.2155,-0.216,-0.2246,-0.2251,-0.2294,-0.2308,-0.2307,-0.2308,-0.2428,-0.2429,-0.247,0,0,0,-0.2102,-0.2095,-0.2111,-0.2106,-0.2169,-0.2208,-0.2162,-0.2245,-0.2255,-0.2307,-0.2307,-0.231,-0.2428,-0.2428,-0.2468,-0.251,0,0,0,-0.2083,-0.2094,-0.21,-0.2105,-0.2139,-0.2206,-0.2216,-0.2247,-0.2265,-0.2305,-0.231,-0.2427,-0.2428,-0.2466,-0.2506,-0.2532,0,0,0,-0.2071,-0.21,-0.21,-0.2149,-0.2138,-0.2218,-0.2216,-0.2266,-0.2301,-0.2307,-0.2428,-0.2429,-0.2465,-0.2504,-0.253,-0.2423,-0.2425,0,0,-0.2104,-0.2104,-0.2137,-0.2139,-0.2213,-0.2208,-0.2298,-0.2328,-0.2327,-0.2399,-0.2402,-0.2468,-0.2506,-0.2532,-0.2477,-0.2477,0,0,0,-0.2147,-0.216,-0.2187,-0.2229,-0.228,-0.2337,-0.2361,-0.2373,-0.2414,-0.2354,-0.2476,-0.2499,-0.2513,-0.2444,-0.2445,-0.2502,-0.2433,-0.2433,-0.2433,-0.2145,-0.2187,-0.2245,-0.2301,-0.2357,-0.2424,-0.2472,-0.2494,-0.2475,-0.2486,-0.2537,-0.2595,-0.2521,-0.252,-0.2581,-0.2529,-0.2529,-0.2529,-0.2529,-0.2176,-0.2197,-0.2275,-0.2336,-0.2413,-0.2481,-0.258,-0.2576,-0.2635,-0.259,-0.26,-0.2497,-0.2523,-0.2588,-0.2532,-0.2531,-0.2531,-0.2531,-0.2531,-0.2138,-0.2155,-0.2208,-0.2305,-0.2404,-0.2502,-0.2589,-0.266,-0.2678,-0.2713,-0.2606,-0.2604,-0.2657,-0.2693,-0.2694,-0.2694,-0.2694,-0.2695,-0.2695,-0.2056,-0.212,-0.2145,-0.227,-0.232,-0.2431,-0.259,-0.2634,-0.2669,-0.2665,-0.2663,-0.2682,-0.2645,-0.2634,-0.27,-0.2699,-0.2698,-0.2698,-0.2697,-0.1969,-0.1997,-0.2033,-0.2078,-0.2215,-0.227,-0.2463,-0.2541,-0.261,-0.2597,-0.2672,-0.2632,-0.2612,-0.2608,-0.2597,-0.2649,-0.2649,-0.2649,-0.2649,-0.1876,-0.1908,-0.19,-0.1941,-0.2036,-0.2178,-0.2229,-0.2395,-0.2558,-0.2625,-0.269,-0.263,-0.2629,-0.2608,-0.2605,-0.2593,-0.2643,-0.2644,-0.2644,-0.1794,-0.1812,-0.1757,-0.1825,-0.1926,-0.2034,-0.2077,-0.2336,-0.2588,-0.2657,-0.2803,-0.2803,-0.2729,-0.2723,-0.2696,-0.2687,-0.2668,0,0]},{"header":{"parameterUnit":"m.s-1","parameterCategory":2,"la1":30.2992,"la2":30.254,"lo1":-89.0895,"lo2":-89.0443,"dy":0.0025,"dx":0.0025,"nx":19,"ny":19,"refTime":"2026-05-11T21:00:00:Z","depth":"0","parameterNumber":3,"parameterNumberName":"V-component_of_CURRENTS"},"data":[0,0,0,-0.0417,-0.0417,-0.0384,-0.0383,-0.0241,-0.024,0,0,0,0,0,0,0,0,0,0,0,-0.0427,-0.0427,-0.0417,-0.0417,-0.0384,-0.0383,-0.0241,-0.024,0,0,0,0,0,0,0,0,0,0,0,-0.0426,-0.0427,-0.0427,-0.0417,-0.0384,-0.0383,-0.0242,-0.0287,0,0,0,0,0,0,0,0,0,0,-0.033,-0.0354,-0.0427,-0.0427,-0.0417,-0.0384,-0.0383,-0.029,-0.0284,-0.0234,0,-0.0244,0,-0.0246,-0.023,-0.0229,0,0,0,-0.0397,-0.036,-0.036,-0.0427,-0.0417,-0.0384,-0.0393,-0.0287,-0.028,-0.0226,-0.0242,-0.0237,-0.0243,-0.0229,-0.0228,-0.0136,-0.0136,0,0,-0.0399,-0.0403,-0.0365,-0.0357,-0.0425,-0.0394,-0.0392,-0.0284,-0.0276,-0.0242,-0.0235,-0.0241,-0.0228,-0.0227,-0.0136,-0.0136,0,0,0,-0.0418,-0.0405,-0.0409,-0.0362,-0.0367,-0.0394,-0.0392,-0.028,-0.0285,-0.0233,-0.0239,-0.0227,-0.0225,-0.0136,-0.0136,-0.0194,0,0,0,-0.0418,-0.0417,-0.041,-0.041,-0.0371,-0.0336,-0.039,-0.0293,-0.0281,-0.024,-0.0227,-0.0224,-0.0136,-0.0136,-0.0192,-0.0229,0,0,0,-0.0425,-0.0417,-0.0422,-0.0411,-0.0407,-0.0339,-0.0336,-0.0291,-0.0285,-0.0229,-0.0223,-0.0136,-0.0136,-0.019,-0.0226,-0.0208,0,0,0,-0.0418,-0.044,-0.0422,-0.0443,-0.0407,-0.0399,-0.0337,-0.031,-0.027,-0.0226,-0.0136,-0.0136,-0.019,-0.0224,-0.0207,-0.0208,-0.0215,0,0,-0.0446,-0.0443,-0.0457,-0.0441,-0.0465,-0.0401,-0.0384,-0.0305,-0.0252,-0.016,-0.0158,-0.0193,-0.0226,-0.0208,-0.0222,-0.0229,0,0,0,-0.0466,-0.0487,-0.0488,-0.0496,-0.0472,-0.0439,-0.0364,-0.0318,-0.0246,-0.0234,-0.0181,-0.02,-0.0187,-0.0185,-0.019,-0.0,-0.0137,-0.0137,-0.0137,-0.0513,-0.0515,-0.0553,-0.0552,-0.0526,-0.0453,-0.0409,-0.0329,-0.0269,-0.025,-0.0239,-0.0256,-0.0255,-0.0258,-0.0064,-0.0221,-0.0222,-0.0222,-0.0222,-0.0594,-0.0636,-0.0615,-0.0654,-0.06,-0.0566,-0.0446,-0.0392,-0.0306,-0.0274,-0.0257,-0.0236,-0.0267,-0.0057,-0.0226,-0.0225,-0.0224,-0.0224,-0.0224,-0.0658,-0.0683,-0.0699,-0.0743,-0.0729,-0.0648,-0.0605,-0.0495,-0.0375,-0.0354,-0.0307,-0.0305,-0.0125,-0.0332,-0.0332,-0.0332,-0.0332,-0.0332,-0.0332,-0.0723,-0.0744,-0.0815,-0.0841,-0.0866,-0.0841,-0.0701,-0.062,-0.0466,-0.0373,-0.0372,-0.0107,-0.0288,-0.0289,-0.0334,-0.0333,-0.0333,-0.0333,-0.0333,-0.0823,-0.0827,-0.0938,-0.0986,-0.1043,-0.1062,-0.0907,-0.0705,-0.0575,-0.0497,-0.0139,-0.0359,-0.0333,-0.0328,-0.0329,-0.0381,-0.0381,-0.0381,-0.0381,-0.0884,-0.0899,-0.1046,-0.1142,-0.1202,-0.1164,-0.1098,-0.0846,-0.0394,-0.016,-0.0051,-0.0004,-0.0011,0.0039,0.0035,0.0044,0.0088,0.0089,0.009,-0.095,-0.0989,-0.1104,-0.1202,-0.1278,-0.1273,-0.1232,-0.0957,-0.0248,0.0132,0.0217,0.0197,0.0288,0.0263,0.0357,0.0337,0.0357,0,0]}],[{"header":{"parameterUnit":"m.s-1","parameterCategory":2,"la1":30.2992,"la2":30.254,"lo1":-89.0895,"lo2":-89.0443,"dy":0.0025,"dx":0.0025,"nx":19,"ny":19,"refTime":"2026-05-11T21:00:00:Z","depth":"2","parameterNumber":2,"parameterNumberName":"U-component_of_CURRENTS"},"data":[0,0,0,-0.204,-0.2042,-0.2116,-0.2116,-0.2228,-0.223,0,0,0,0,0,0,0,0,0,0,0,-0.2001,-0.2001,-0.204,-0.2042,-0.2116,-0.2116,-0.2228,-0.223,0,0,0,0,0,0,0,0,0,0,0,-0.2001,-0.2001,-0.2002,-0.2042,-0.2116,-0.2116,-0.2228,-0.2166,0,0,0,0,0,0,0,0,0,0,-0.2091,-0.2061,-0.2001,-0.2002,-0.2043,-0.2116,-0.2116,-0.2162,-0.217,-0.2202,0,-0.2211,0,-0.2234,-0.2238,-0.2239,0,0,0,-0.2034,-0.2055,-0.2074,-0.2002,-0.2043,-0.2116,-0.208,-0.2166,-0.2174,-0.2212,-0.2213,-0.2217,-0.2236,-0.2239,-0.224,-0.2362,-0.2362,0,0,-0.203,-0.2019,-0.2068,-0.2079,-0.2061,-0.2078,-0.2083,-0.2171,-0.218,-0.2213,-0.222,-0.2238,-0.224,-0.2241,-0.2361,-0.2362,0,0,0,-0.2023,-0.2016,-0.2032,-0.2074,-0.2092,-0.208,-0.2086,-0.2176,-0.218,-0.2222,-0.2239,-0.2241,-0.2242,-0.2361,-0.2361,-0.2402,0,0,0,-0.202,-0.2013,-0.203,-0.2025,-0.209,-0.2136,-0.2089,-0.2174,-0.2185,-0.2239,-0.2241,-0.2244,-0.236,-0.2361,-0.24,-0.2443,0,0,0,-0.1998,-0.2012,-0.2018,-0.2024,-0.2061,-0.2134,-0.2144,-0.2176,-0.2197,-0.2239,-0.2244,-0.236,-0.2361,-0.2399,-0.2439,-0.2464,0,0,0,-0.1987,-0.2013,-0.2018,-0.2067,-0.206,-0.2142,-0.2143,-0.2197,-0.2233,-0.2241,-0.236,-0.2361,-0.2398,-0.2437,-0.2462,-0.2326,-0.2326,0,0,-0.2016,-0.2016,-0.205,-0.2057,-0.2131,-0.2131,-0.2224,-0.2257,-0.2257,-0.233,-0.2333,-0.2401,-0.2439,-0.2464,-0.2376,-0.2374,0,0,0,-0.2058,-0.207,-0.2098,-0.2143,-0.2198,-0.2259,-0.2288,-0.2301,-0.2344,-0.2285,-0.2407,-0.243,-0.2444,-0.2357,-0.2356,-0.2365,-0.2365,-0.2365,-0.2365,-0.2049,-0.2095,-0.2152,-0.2213,-0.2272,-0.2346,-0.2396,-0.2419,-0.2402,-0.2414,-0.2467,-0.2523,-0.243,-0.2428,-0.2458,-0.2458,-0.2458,-0.2458,-0.2458,-0.2076,-0.2098,-0.2181,-0.2245,-0.2327,-0.2398,-0.2503,-0.2501,-0.2562,-0.2518,-0.2528,-0.241,-0.2429,-0.2462,-0.2461,-0.246,-0.246,-0.246,-0.246,-0.2037,-0.2054,-0.211,-0.2211,-0.2314,-0.2419,-0.2505,-0.2582,-0.2605,-0.264,-0.2514,-0.2511,-0.2554,-0.2621,-0.2621,-0.2622,-0.2622,-0.2622,-0.2622,-0.1952,-0.2018,-0.2045,-0.2173,-0.2225,-0.2337,-0.2503,-0.2547,-0.2579,-0.2569,-0.2567,-0.2579,-0.2573,-0.2563,-0.2627,-0.2626,-0.2625,-0.2625,-0.2625,-0.1864,-0.1894,-0.193,-0.1976,-0.2112,-0.2153,-0.2356,-0.2425,-0.2498,-0.2477,-0.2523,-0.2523,-0.2501,-0.2498,-0.2487,-0.2527,-0.2527,-0.2527,-0.2527,-0.177,-0.1803,-0.1795,-0.1835,-0.1923,-0.2052,-0.2051,-0.2135,-0.2262,-0.2273,-0.2284,-0.2194,-0.2203,-0.2159,-0.2165,-0.2144,-0.2096,-0.2095,-0.2095,-0.1687,-0.1705,-0.1652,-0.1718,-0.1811,-0.1888,-0.1839,-0.1848,-0.193,-0.2078,-0.2215,-0.2497,-0.239,-0.2395,-0.2346,-0.2348,-0.2323,0,0]},{"header":{"parameterUnit":"m.s-1","parameterCategory":2,"la1":30.2992,"la2":30.254,"lo1":-89.0895,"lo2":-89.0443,"dy":0.0025,"dx":0.0025,"nx":19,"ny":19,"refTime":"2026-05-11T21:00:00:Z","depth":"2","parameterNumber":3,"parameterNumberName":"V-component_of_CURRENTS"},"data":[0,0,0,-0.0365,-0.0365,-0.0336,-0.0336,-0.0196,-0.0194,0,0,0,0,0,0,0,0,0,0,0,-0.0372,-0.0372,-0.0365,-0.0365,-0.0336,-0.0335,-0.0196,-0.0194,0,0,0,0,0,0,0,0,0,0,0,-0.0372,-0.0372,-0.0373,-0.0365,-0.0336,-0.0335,-0.0196,-0.0239,0,0,0,0,0,0,0,0,0,0,-0.0278,-0.0302,-0.0372,-0.0373,-0.0365,-0.0336,-0.0335,-0.0242,-0.0236,-0.0186,0,-0.0195,0,-0.0199,-0.0184,-0.0184,0,0,0,-0.0346,-0.0307,-0.0308,-0.0373,-0.0365,-0.0336,-0.0344,-0.0239,-0.0233,-0.0178,-0.0194,-0.0189,-0.0196,-0.0183,-0.0183,-0.0091,-0.0091,0,0,-0.0347,-0.0351,-0.0313,-0.0304,-0.0373,-0.0345,-0.0343,-0.0236,-0.0229,-0.0193,-0.0186,-0.0194,-0.0182,-0.0181,-0.0091,-0.0091,0,0,0,-0.0365,-0.0352,-0.0357,-0.0309,-0.0316,-0.0344,-0.0342,-0.0233,-0.0238,-0.0185,-0.0192,-0.0182,-0.018,-0.009,-0.0091,-0.0149,0,0,0,-0.0365,-0.0364,-0.0358,-0.0357,-0.032,-0.0288,-0.0341,-0.0245,-0.0234,-0.0193,-0.0182,-0.0178,-0.009,-0.0091,-0.0147,-0.0185,0,0,0,-0.0371,-0.0364,-0.0369,-0.0358,-0.0356,-0.029,-0.0288,-0.0243,-0.0238,-0.0184,-0.0178,-0.009,-0.009,-0.0145,-0.0181,-0.0163,0,0,0,-0.0364,-0.0386,-0.0369,-0.0391,-0.0357,-0.035,-0.0289,-0.0263,-0.0224,-0.0181,-0.009,-0.0091,-0.0145,-0.0179,-0.0162,-0.0165,-0.0172,0,0,-0.0392,-0.0389,-0.0404,-0.0389,-0.0414,-0.0351,-0.0336,-0.0259,-0.0206,-0.0114,-0.0112,-0.0148,-0.0181,-0.0163,-0.0179,-0.0186,0,0,0,-0.0413,-0.0434,-0.0435,-0.0445,-0.0422,-0.039,-0.0317,-0.0272,-0.0201,-0.0188,-0.0136,-0.0155,-0.0142,-0.0141,-0.0146,-0.0092,-0.0092,-0.0092,-0.0092,-0.0459,-0.0462,-0.0501,-0.0501,-0.0477,-0.0405,-0.0363,-0.0284,-0.0224,-0.0205,-0.0194,-0.0211,-0.0211,-0.0215,-0.0176,-0.0177,-0.0177,-0.0177,-0.0177,-0.054,-0.0582,-0.0563,-0.0604,-0.0551,-0.0519,-0.04,-0.0347,-0.0261,-0.023,-0.0212,-0.0192,-0.0224,-0.0182,-0.0181,-0.018,-0.018,-0.0179,-0.0179,-0.0603,-0.0628,-0.0646,-0.0691,-0.0679,-0.0601,-0.056,-0.0451,-0.0331,-0.031,-0.0264,-0.0263,-0.024,-0.0288,-0.0288,-0.0288,-0.0288,-0.0288,-0.0288,-0.0666,-0.0688,-0.076,-0.0789,-0.0815,-0.0792,-0.0656,-0.0576,-0.0424,-0.0331,-0.033,-0.0248,-0.0244,-0.0245,-0.029,-0.029,-0.0289,-0.0289,-0.0289,-0.0765,-0.0769,-0.088,-0.093,-0.0988,-0.1003,-0.0857,-0.066,-0.0533,-0.0455,-0.0319,-0.0318,-0.0292,-0.0287,-0.0288,-0.0341,-0.0341,-0.0341,-0.0341,-0.0823,-0.0839,-0.0985,-0.1081,-0.1141,-0.11,-0.1023,-0.0774,-0.0504,-0.0368,-0.0366,-0.0355,-0.0352,-0.0327,-0.0322,-0.0322,-0.0384,-0.0385,-0.0385,-0.0887,-0.0927,-0.1041,-0.1139,-0.1214,-0.1198,-0.1132,-0.0849,-0.0473,-0.0387,-0.0376,-0.0343,-0.0321,-0.0319,-0.0275,-0.0269,-0.0267,0,0]}],[{"header":{"parameterUnit":"m.s-1","parameterCategory":2,"la1":30.2992,"la2":30.254,"lo1":-89.0895,"lo2":-89.0443,"dy":0.0025,"dx":0.0025,"nx":19,"ny":19,"refTime":"2026-05-11T21:00:00:Z","depth":"4","parameterNumber":2,"parameterNumberName":"U-component_of_CURRENTS"},"data":[0,0,0,-0.0932,-0.0933,-0.1037,-0.1038,-0.0913,-0.091,0,0,0,0,0,0,0,0,0,0,0,-0.0957,-0.0958,-0.0932,-0.0933,-0.1036,-0.1038,-0.0913,-0.091,0,0,0,0,0,0,0,0,0,0,0,-0.0957,-0.0958,-0.0959,-0.0933,-0.1036,-0.1038,-0.0914,-0.0911,0,0,0,0,0,0,0,0,0,0,-0.0848,-0.0894,-0.0958,-0.0959,-0.0933,-0.1036,-0.1038,-0.0915,-0.0911,-0.0777,0,-0.0816,0,-0.0803,-0.0892,-0.0891,0,0,0,-0.0982,-0.0898,-0.09,-0.096,-0.0933,-0.1036,-0.1004,-0.0915,-0.0911,-0.0771,-0.0814,-0.081,-0.08,-0.089,-0.0888,-0.0868,-0.087,0,0,-0.0976,-0.0987,-0.0904,-0.0898,-0.0981,-0.1,-0.1006,-0.0916,-0.0927,-0.0814,-0.0807,-0.0798,-0.0888,-0.0886,-0.0867,-0.0869,0,0,0,-0.0927,-0.0983,-0.0996,-0.0903,-0.0911,-0.1002,-0.1009,-0.0934,-0.0933,-0.0805,-0.0797,-0.0886,-0.0883,-0.0865,-0.0867,-0.1043,0,0,0,-0.0926,-0.0949,-0.0993,-0.1002,-0.0915,-0.0954,-0.1029,-0.0943,-0.093,-0.0798,-0.0886,-0.088,-0.0862,-0.0866,-0.1034,-0.1087,0,0,0,-0.0949,-0.095,-0.0967,-0.1002,-0.1015,-0.0957,-0.0956,-0.0943,-0.0918,-0.089,-0.0879,-0.0861,-0.0865,-0.1026,-0.1074,-0.1164,0,0,0,-0.0949,-0.0976,-0.0969,-0.0984,-0.1014,-0.1052,-0.0958,-0.1024,-0.1029,-0.0885,-0.0863,-0.0867,-0.1023,-0.1066,-0.1156,-0.082,0,0,0,-0.097,-0.098,-0.0981,-0.0973,-0.1079,-0.104,-0.1099,-0.109,-0.1039,-0.0875,-0.0878,-0.1037,-0.1073,-0.1162,-0.1087,0,0,0,0,-0.0975,-0.0999,-0.1041,-0.1076,-0.1101,-0.1209,-0.1155,-0.1121,-0.1155,-0.1046,-0.1079,-0.1096,-0.1146,-0.093,-0.0889,-0.0888,-0.0888,-0.0887,-0.0887,-0.0994,-0.101,-0.1088,-0.1163,-0.1206,-0.1284,-0.1357,-0.13,-0.1203,-0.1298,-0.1272,-0.1501,-0.1286,-0.1319,-0.132,-0.1321,-0.1322,-0.1322,-0.1323,-0.1012,-0.1032,-0.1113,-0.121,-0.1329,-0.1362,-0.145,-0.1492,-0.1525,-0.1434,-0.1475,-0.1171,-0.1341,-0.1338,-0.1335,-0.1333,-0.1331,-0.133,-0.1329,-0.0982,-0.1015,-0.1086,-0.1202,-0.1344,-0.1474,-0.1524,-0.165,-0.171,-0.1786,-0.1538,-0.1618,-0.1563,-0.1822,-0.1823,-0.1823,-0.1824,-0.1825,-0.1825,-0.0922,-0.1003,-0.1077,-0.1221,-0.1285,-0.1432,-0.1605,-0.1609,-0.1747,-0.1698,-0.1846,-0.1668,-0.1652,-0.1592,-0.1836,-0.1834,-0.1833,-0.1832,-0.1831,-0.0891,-0.0925,-0.1,-0.1066,-0.1215,-0.1268,-0.1461,-0.1491,-0.1529,-0.1515,-0.1631,-0.1638,-0.153,-0.1518,-0.1447,-0.1658,-0.1654,-0.1651,0,-0.0852,-0.0877,-0.0957,-0.1003,-0.1054,-0.1188,-0.1142,-0.1194,-0.1367,-0.1435,-0.153,-0.1668,-0.1669,-0.1542,-0.1525,-0.144,0,0,0,-0.0848,-0.0865,-0.0895,-0.0959,-0.0992,-0.1062,-0.1151,-0.1151,-0.1412,-0.1213,-0.1565,-0.1587,-0.1414,-0.1868,-0.1719,-0.1699,-0.1594,0,0]},{"header":{"parameterUnit":"m.s-1","parameterCategory":2,"la1":30.2992,"la2":30.254,"lo1":-89.0895,"lo2":-89.0443,"dy":0.0025,"dx":0.0025,"nx":19,"ny":19,"refTime":"2026-05-11T21:00:00:Z","depth":"4","parameterNumber":3,"parameterNumberName":"V-component_of_CURRENTS"},"data":[0,0,0,-0.0019,-0.002,-0.006,-0.006,-0.0006,-0.0005,0,0,0,0,0,0,0,0,0,0,0,-0.002,-0.0021,-0.0019,-0.002,-0.006,-0.006,-0.0006,-0.0005,0,0,0,0,0,0,0,0,0,0,0,-0.002,-0.0021,-0.0021,-0.002,-0.006,-0.006,-0.0006,-0.0003,0,0,0,0,0,0,0,0,0,0,0.0023,0.0016,-0.002,-0.0021,-0.002,-0.006,-0.006,-0.0004,-0.0003,0.0044,0,0.0023,0,0.0021,0.0002,0.0002,0,0,0,-0.0023,0.0015,-0.0001,-0.0021,-0.0021,-0.006,-0.0043,-0.0004,-0.0003,0.0046,0.0024,0.0026,0.0022,0.0002,0.0003,0.0061,0.0061,0,0,-0.0021,-0.0015,-0.0002,-0.0001,-0.0047,-0.0042,-0.0044,-0.0005,-0.0003,0.0024,0.0027,0.0023,0.0003,0.0004,0.0061,0.0061,0,0,0,-0.0012,-0.0014,-0.0033,-0.0003,-0.0013,-0.0043,-0.0046,-0.0006,-0.0015,0.0027,0.0024,0.0003,0.0005,0.0061,0.0061,0.0006,0,0,0,-0.0011,-0.0009,-0.0033,-0.0028,-0.0015,-0.0021,-0.0047,-0.0018,-0.0014,0.0024,0.0003,0.0005,0.0061,0.0061,0.0008,-0.0045,0,0,0,-0.0015,-0.0008,-0.002,-0.0028,-0.0043,-0.0022,-0.003,-0.0018,-0.0014,0.0002,0.0006,0.0061,0.0061,0.0009,-0.0041,-0.0043,0,0,0,0.0002,-0.0046,-0.0021,-0.0068,-0.0043,-0.0084,-0.003,-0.0033,-0.0024,0.0004,0.0061,0.0061,0.001,-0.0039,-0.0042,-0.0074,0,0,0,-0.0054,-0.0052,-0.0081,-0.006,-0.0128,-0.0078,-0.0106,-0.0056,-0.0006,0.0056,0.0056,0.0007,-0.0041,-0.0043,-0.0083,0,0,0,0,-0.0096,-0.0123,-0.0139,-0.0166,-0.0173,-0.0171,-0.0119,-0.0075,-0.0019,-0.0001,0.0019,-0.001,-0.0009,-0.0022,0.006,0.006,0.006,0.006,0.006,-0.0163,-0.0174,-0.0238,-0.0254,-0.0263,-0.0218,-0.02,-0.0125,-0.0058,-0.0029,-0.0044,-0.0075,-0.009,-0.0017,-0.0017,-0.0017,-0.0017,-0.0018,-0.0018,-0.0252,-0.0294,-0.0302,-0.0368,-0.0351,-0.0352,-0.0263,-0.02,-0.0133,-0.0078,-0.0073,-0.0067,-0.0023,-0.0022,-0.0021,-0.002,-0.002,-0.002,-0.0019,-0.0288,-0.0319,-0.0354,-0.0431,-0.0467,-0.043,-0.0419,-0.0328,-0.0209,-0.02,-0.0172,-0.0111,-0.0117,-0.0173,-0.0173,-0.0173,-0.0173,-0.0173,-0.0174,-0.0313,-0.0356,-0.0433,-0.0503,-0.0552,-0.0575,-0.0506,-0.0456,-0.0335,-0.0258,-0.0208,-0.0127,-0.0122,-0.0125,-0.0177,-0.0177,-0.0176,-0.0176,-0.0176,-0.038,-0.0389,-0.0502,-0.0566,-0.0671,-0.0679,-0.063,-0.0517,-0.0454,-0.0379,-0.0272,-0.0266,-0.0249,-0.0241,-0.0248,-0.0338,-0.0339,-0.034,0,-0.0415,-0.0431,-0.0583,-0.0684,-0.0753,-0.0744,-0.0671,-0.0601,-0.0463,-0.0451,-0.0444,-0.0328,-0.0321,-0.0307,-0.0301,-0.0312,0,0,0,-0.0469,-0.0509,-0.0624,-0.0726,-0.0798,-0.072,-0.0657,-0.061,-0.0483,-0.0441,-0.0356,-0.0351,-0.0303,-0.0189,-0.0149,-0.0143,-0.0146,0,0]}]]